 £³¡Ë£Ê£Á¥¢¥Ê¥í¥°¥â¡¼¥É¤È£Ê£Ä¥Ç¥£¥¸¥¿¥ë¥â¡¼¥É¤Î¥Æ¥ì¥á¥È¥êʬÀÏ
¡¡¡£Ê£Á¥¢¥Ê¥í¥°¥â¡¼¥É
    ¥Æ¥ì¥á¥È¥ê¤ÎºÇ¸å¤Î¹Ô¤Î´¹»»ÃÍÎã   
  ¡¡AS13751CP  31May99
¡¡¡¡JST 13:47 - 13:54¡¡¤Î¥Ñ¥¹
¡¡¡¡Freq.435.805 - .796 MODE CW
 ¥Æ¥ì¥á¥È¥ê	Æâ   ÍÆ          ´¹»»ÃÍ Ã± °Ì
 £³£Ã	¼§µ¤¥»¥ó¥µ¡¼£Ú¼´=	66666.6	nT
 £³£Ä	¼§µ¤¥»¥ó¥µ£Ø¼´	=	31372.5	nT
 £´£Á	ÂÀÍÛÅÅÃÓȯÀ¸ÅÅή=	 1294.1	mA
 £´£Â	£Â½¼ÊüÅÅÅÅή	=	 -314.4	mA
 £´£Ã	£Âü»ÒÅ۵	=	   15.8	V
 £´£Ä	£ÂÃæ´Öü»ÒÅ۵	=	    7.0	V
 £µ£Á	¥Ð¥¹Å۵	=	   15.5	V
 £µ£Â	£Ê£Ô£ÁÁ÷¿®ÅÅÎÏ	=	  779.4	mW
 £µ£Ã 	¹½Âβ¹ÅÙ£±	=	    9.6	¡î
 £µ£Ä	¹½Âβ¹ÅÙ£²	=	   10.4	¡î
 £¶£Á	¹½Âβ¹ÅÙ£³	=	    9.6	¡î
 £¶£Â	¹½Âβ¹ÅÙ£´	=	    9.6	¡î
 £¶£Ã	£Â¥»¥ë²¹ÅÙ	=	   11.2	¡î
 £³£Ã	¼§µ¤¥»¥ó¥µ¡¼£Ú¼´=	44607.8	nT
 
¡¡¢£Ê£Ä¥Ç¥£¥¸¥¿¥ë¥â¡¼¥É
¡¡¡¡¥Æ¥ì¥á¥È¥ê¤ÎºÇ½é¤Î¥Ö¥í¥Ã¥¯¤Î´¹»»ÃÍÎã
¡¡¡¡AS13751CP  31May99
¡¡¡¡JST 13:55 - 14:04
¡¡¡¡Freq.435.909 - .901 MODE JAS
¡¡¥Æ¥ì¥á¥È¥ê	    Æâ   ÍÆ		´¹»»ÃÍ	ñ °Ì
¡¡£Æ£±¡¼£±£²	¼§µ¤¥»¥ó¥µ¡¼£Ø¼´=      113235.3 nT
¡¡£Æ£±¡¼£±£³	¼§µ¤¥»¥ó¥µ¡¼£Ú¼´=	28921.6 nT
¡¡£Æ£°¡¼£±£µ	ÂÀÍÛÅÅÃÓȯÀ¸ÅÅή=	 1362.8	mA
¡¡£Æ£°¡¼£±£¶	£Â½¼ÊüÅÅÅÅή	=	  138.0	mA
¡¡£Æ£°¡¼£±£·	£Âü»ÒÅ۵	=	   15.8	V
¡¡£Æ£°¡¼£±£¸	£ÂÃæ´Öü»ÒÅ۵	=	    6.9	V
¡¡£Æ£°¡¼£±£¹	¥Ð¥¹Å۵	=	   17.3	V
¡¡£Æ£°¡¼£²£°	¡Ü5°ÂÄê²½Å۵	=	    5.1	V
¡¡£Æ£°¡¼£²£±	¡¼5£Ö°ÂÄê²½Å۵	=	   -4.9	V
¡¡£Æ£°¡¼£²£²	¡Ü£±£°£Ö°ÂÄê²½Å۵=	   10.1	V
¡¡£Æ£°¡¼£²£³	£Ê£Ô£Á½ÐÎÏÅÅÎÏ	=	  -91.6	£í£×
¡¡£Æ£°¡¼£²£´	£Ê£Ô£Ä½ÐÎÏÅÅÎÏ	=	  841.1	£í£×
¡¡£Æ£°¡¼£²£µ	£Â¥»¥ë²¹ÅÙ	=	   10.8	¡î
¡¡£Æ£°¡¼£²£¶	¹½Âβ¹ÅÙ¡¼£±	¡á	    9.6	¡î
¡¡£Æ£°¡¼£²£·	¹½Âβ¹ÅÙ¡¼£²	¡á	   10.4	¡î
¡¡£Æ£°¡¼£²£¸	¹½Âβ¹ÅÙ¡¼£³	¡á	   10.0	¡î
¡¡£Æ£°¡¼£²£¹	¹½Âβ¹ÅÙ¡¼£´	¡á	   10.0	¡î
¡¡£Æ£±¡¼£±£¸	ÂÀÍÛÅÅÃӥѥͥ벹ÅÙ¡¼£±¡á   -4.7	¡î
¡¡£Æ£±¡¼£±£¹	ÂÀÍÛÅÅÃӥѥͥ벹ÅÙ¡¼£²¡á    8.9	¡î
¡¡£Æ£±¡¼£²£´	ÂÀÍÛÅÅÃӥѥͥ벹ÅÙ¡¼£³¡á   13.4	¡î
¡¡£Æ£±¡¼£²£³	£Ê£Ô£Ä  £Ô£ò²¹ÅÙ¡á	   13.1	¡î
 ¡ö·×»»½èÍý¤Ï OFFICE 97 ¤ò»ÈÍÑ¡¥
 ¡ö£Ê£Á¥¢¥Ê¥í¥°¥â¡¼¥É¤È£Ê£Ä¥Ç¥£¥¸¥¿¥ë¥â¡¼¥É¤Î»þ¤Î¥Æ¥ì¥á¥È¥ê¤ÎÈæ³Ó¤ò¤·¤Æ¤ß¤Æ¤¯¤À¤µ¤¤.
 ¡¡
 ==============================================================================
  £´¡Ë£Æ£Ï¡Ý£²£°¡Ê¤Õ¤¸2¹æ¡Ë¤Î£Ã£×¥Æ¥ì¥á¥È¥ê¤Ï£µ·î£±£°Æü¡Ê·î¡Ë£±£¸¡§£²£·¡Ê£Ê£Ó£Ô¡Ë¤Î
     ¥Ñ¥¹¤Ç¤Ï¥Æ¥ì¥á¥È¥ê¡¼¤¬Ã±°ì¥È¡¼¥ó¤ÎϢ³²»¤«¤éÓ¹¤ê¤òȼ¤Ã¤¿Ï¢Â³²»¡¢¤µ¤é¤Ë¤æ¤é¤®¤Î
     ¤¢¤ë¿®¹æ¤Ë¤Ê¤ê¡¢¤¤¤Þ¤Þ¤Ç¤è¤ê¼ã´³¿®¹æ¤¬¼å¤¯¤Ê¤Ã¤Æ¤¤¤Þ¤·¤¿¡¥
 -----------------------------  FO - 20 µ°Æ»Í×ÁÇ ----------------------------------
 
¢£ µ°Æ»Í×ÁÇ£± ¡§½Ðŵ¤Ï¡Ö¤Õ¤¸£³¹æ¡×¤ËƱ¤¸¡¥ 
  
  FO-20
¡¡1 20480U 90013C   99146.11592962 -.00000034  00000-0 -12977-5 0  1432
¡¡2 20480  99.0252 345.0378 0540211 214.5454 141.9412 12.83252169435509
 
 ¢£ µ°Æ»Í×ÁÇ£² ¡§½Ðŵ¤Ï¡Ö¤Õ¤¸£³¹æ¡×¤ËƱ¤¸¡¥  
               
  Satellite: FO-20
¡¡Catalog number: 20480
¡¡Epoch time:      99146.11592962
¡¡Element set:     143
¡¡Inclination:       99.0252 deg
¡¡RA of node:       345.0378 deg
¡¡Eccentricity:    0.0540211
¡¡Arg of perigee:   214.5454 deg
¡¡Mean anomaly:     141.9412 deg
¡¡Mean motion:   12.83252169 rev/day
¡¡Decay rate:       -3.4e-07 rev/day^2
¡¡Epoch rev:           43550
¡¡Checksum:              280
  ====================    FO-20 ¤Î FFTDSP ==========================
 ¡¡
¡¡¡¡JE9PEL/1¶É ÏÆÅÄ Èþº¬É׻᤬£Æ£Ï¡Ý£²£°¤Î¿®¹æ¤Î¥É¥Ã¥×¥é¡¼¥·¥Õ¥È¤Î
¡¡¡¡£Æ£Æ£ÔʬÀÏɽ¼¨Îã¤òFO-29¤Î³¤[jamsat-bb:4506]¤Ë¥ì¥Ý¡¼¥È¤µ¤ì¤Æ¤¤¤Þ¤·¤¿
¡¡¡¡¤Î¤ÇžºÜ¤µ¤»¤ÆÄº¤¤Þ¤·¤¿¡¥
¡¡FO-20(JAS-1b)¤ò¡¢4¡Á5ǯ¤Ö¤ê¤Ëʹ¤¤¤Æ¤ß¤Þ¤·¤¿¡£
¡¡¶Ä³Ñ0Å٤ǡ¢ÂÀÊ¿Íξå¤ò¤¹¤ì¤¹¤ì¤ËÈô¤Ö¥Ñ¥¹¤Ç¤¹¡£
¡¡435.795MHz ¤Î CW¥Ó¡¼¥³¥ó¤Ï¡¢SNÈæ 10dB°Ê²¼¤Î
¡¡Ã±°ì¥È¡¼¥ó¤Î¥¥ã¥ê¥¢¤Î¤ß¤È¤Ê¤Ã¤Æ¤¤¤Þ¤·¤¿¡£
¡¡FFTDSP ¤Ë¤è¤ë²òÀϿޤϡ¢²¼µURL¤ò»²¾È²¼¤µ¤¤¡£
¡¡----------------------------------------------
¡¡Name : JE9PEL/1 ÏÆÅÄ
¡¡Mail : je9pel@jamsat.or.jp
¡¡URL  : http://www.ne.jp/asahi/hamradio/je9pel/
¡¡QTH  : Yokohama, Japan
¡¡Date : 26 May. 1999
¡¡----------------------------------------------
    =====================================================================
 £µ¡Ë£Ê£Á£Ò£Ì ¤Î¥Û¡¼¥à¥Ú¡¼¥¸¤Ë¿·¤·¤¤±¿ÍÑÄɲÃͽÄ꤬µºÜ¤µ¤ì¤Æ¤¤¤Þ¤·¤¿¤Î¤Ç¤´¾Ò²ð¤·¤Þ¤¹¡¥
       ¡Ê http://www.jarl.or.jp/Japanese/3_Fuji/uy.htm ¡Ë
        ¢£ ¤Õ¤¸£³¹æ¡¿£Æ£Ï¡Ý£²£¹ ¢£  
  
  ¡¡¡¡¡ö¡ö¡ö¡¡±¿ÍÑͽÄê¤Ë¤Ä¤¤¤Æ¡¡¡ö¡ö¡ö
¡¡¡¡¡¡
¡¡ ¡ù£µ·î£²£´Æü¡¡¡Á¡¡£µ·î£³£±Æü¡¡¡¡¡¡¡¡ ¥¢¥Ê¥í¥°±¿ÍÑ
¡¡¡¡ £µ·î£³£±Æü¡¡¡Á¡¡£¶·î£°£·Æü¡¡¡¡¡¡¡¡ ¥Ç¥¸¥¿¥ë·Ï£±£²£°£°£â£ð£ó¥á¡¼¥ë¥Ü¥Ã¥¯¥¹±¿ÍÑ
¡¡¡¡ £¶·î£°£·Æü¡¡¡Á¡¡£¶·î£±£´Æü¡¡¡¡¡¡¡¡ ¥¢¥Ê¥í¥°·Ï±¿ÍÑ
¡¡¡¡ £¶·î£±£´Æü¡¡¡Á¡¡£¶·î£²£±Æü¡¡¡¡¡¡¡¡ ¥Ç¥¸¥¿¥ë·Ï£±£²£°£°£â£ð£ó¥á¡¼¥ë¥Ü¥Ã¥¯¥¹±¿ÍÑ
¡¡¡¡ £¶·î£²£±Æü¡¡¡Á¡¡£··î£°£µÆü¡¡¡¡¡¡¡¡ ¥¢¥Ê¥í¥°·Ï±¿ÍÑ
¡¡¤Ê¤ª¡¤±¿ÍÑͽÄê¤ÏÅÔ¹ç¤Ë¤è¤êÊѹ¹¤¹¤ë¤³¤È¤¬¤¢¤ê¤Þ¤¹¤Î¤Ç¤´Î»¾µ´ê¤¤¤Þ¤¹¡£
¡¡¾È²ñÀè¡¡¡§¡¡lab@jarl.or.jp
¡¡ºÇ¿·¤Î¾ðÊó¤Ï¥Æ¥ì¥Û¥ó¥µ¡¼¥Ó¥¹¡Ê¡§£°£³¡Ý£³£¹£´£²¡Ý£±£°£°£°¡Ë¤ò¤ªÊ¹¤¤¯¤À¤µ¤¤¡£
¡¡¡¡¡¡
¡¡¡¡°Ê¸å¤Î±¿ÍѤËÉÕ¤¤Þ¤·¤Æ¤Ï£¶·î£·Æü£±£¸»þº¢¤Ë¤ªÃΤ餻¤¤¤¿¤·¤Þ¤¹¡£
        ¢£ ¤Õ¤¸£²¹æ¡¿£Æ£Ï¡Ý£²£° ¢£  ¡¡   
            ¡Ö¤Õ¤¸£²¹æ¡×¡¡¸½¶·                                                                                               
   JAS-1b/FO-20¡Ê¤Õ¤¸£²¹æ¡Ë¤ÎÉÔ¶ñ¹çȯÀ¸¤Ë¤Ä¤¤¤Æ
    JAS-1b¡Ê¤Õ¤¸£²¹æ¡Ë¤Î£Ã£×¥Æ¥ì¥á¥È¥ê¿®¹æ¤Ë¡¤£±£¹£¹£·Ç¯£±£°·î£±£²Æü£±£²»þ
 ¡Ê£Ê£Ó£Ô¡Ë¤ÎÆüËܾå¶õÄ̲á»þ¡¤£³·å¤Î¿ô»ú¤¬·«¤êÊÖ¤µ¤ì¤ë¤Ï¤º¤¬£³¸Ä¤ÎĹ²»¤Î
  ·«¤êÊÖ¤·¤È¤Ê¤Ã¤Æ¤¤¤ë¤È¤¤¤¦°Û¾ï¤¬È¯¸«¤µ¤ì¤Þ¤·¤¿¡£¤³¤ÎÉÔ¶ñ¹ç¤Ï¼¡¤ÎÄ̲á»þ
  ¤«¤é¤Ï²óÉü¤·¤Æ¤¤¤Þ¤·¤¿¤¬£±£³Æü£±£µ»þ£²£°Ê¬¤ÎÄ̲á»þ¤ËºÆ¤Ó´Ñ¬¤µ¤ì¤Þ¤·¤¿¡£
  ±ÒÀ±¤Î¥¢¥Ê¥í¥°·ÏÃæ·Ñ¥â¡¼¥Éưºî¤Ï°Û¾ï¤¬Ìµ¤¯¡¤Àµ¾ï»þ¤Î¥Æ¥ì¥á¥È¥êÆâÍÆ¤«¤é¤Ï
  ±ÒÀ±¤Îưºî¤Ë°Û¾ï¤Ïǧ¤á¤é¤ì¤Þ¤»¤ó¡£½¾¤Ã¤Æ¡¤Ä¾¤Á¤Ë±ÒÀ±¤Î¥ß¥Ã¥·¥ç¥ó¤Ë±Æ¶Á¤¹
  ¤ë¤³¤È¤Ï̵¤¤¤ÈͽÁÛ¤µ¤ì¤Þ¤¹¤Î¤Ç¡¤ÅöÌ̤ϥ¢¥Ê¥í¥°·ÏÃæ·Ñ¥â¡¼¥É¤ò·Ñ³¤·¤Þ¤¹¡£
  ±ÒÀ±¤Ï´û¤ËÂǤÁ¾å¤²¤Æ¤«¤é£·Ç¯£¸¥ö·î¤ò·Ð¤Æ¤ª¤ê¤Þ¤¹¤Î¤Ç¡¤º£¸å¤Ï´Æ»ë¤ò¶¯²½¤¹
  ¤ëͽÄê¤Ç¤¹¡£¥¢¥Þ¥Á¥å¥¢³Æ°Ì¤Î¥ì¥Ý¡¼¥È¤ò¤ªÂÔ¤Á¤·¤Þ¤¹¡¥   
  
  °Ê¾å  http://www.jarl.or.jp/Japanese/3_Fuji/fuji.htm
                                           
   =============   JAS-2 ¡Ê¤Õ¤¸£³¹æ¡Ë¤È¸½ºß¤Þ¤Ç¤Î¾ðÊó   ===========
  
  £Á¡¥ÅÅÏäˤè¤ë¤Õ¤¸£³¹æ¤Î±¿ÍѾðÊó
      ¼ÒÃÄË¡¿ÍÆüËÜ¥¢¥Þ¥Á¥å¥¢Ï¢ÌÁ¤Ë¤è¤ë¥µ¡¼¥Ó¥¹
           £Ô£Å£Ì ¡¥   £°£³¡Ý £³£¹£´£² ¡Ý £±£°£°£°
  £Â¡¥¥¢¥Þ¥Á¥å¥¢ÌµÀþ£Æ£Á£Ø¥µ¡¼¥Ó¥¹
      £Ê£Á£Ò£Ì¤Ë¤è¤ë¤Õ¤¸£³¹æ¤Îµ°Æ»¾ðÊó¡Ê¥ª¡¼¥Ó¥Ã¥È¥«¥ì¥ó¥À¡¼¡Ë
         £Æ£Á£Ø £Î£ï¡¥  £°£³¡Ý £³£²£³£³ ¡Ý£°£°£µ£µ
  £Ã¡¥£×£×£×¥Ö¥é¥¦¥¶¤Ç¾ðÊó¤ò´Êñ¤Ë¸«¤ì¤ë¿Í¤Î¤¿¤á¤Ë£Ê£Á£Ó¡Ý£²
     ¤Õ¤¸£³¹æ¤Î±ÒÀ±¤È¤·¤Æ¤Î±¿ÍѤµ¤ì¤ë¤Þ¤Ç¤Î̾Á°¡Ë¤Î³µÍס¢ÂǤÁ¾å¤²
     ¤Þ¤Ç¤Î¾õ¶·¡¢±¿ÍÑÃæ¤Ë¤ª¤±¤ë¾õ¶·¤òÀâÌÀ¤·¤¿¥Û¡¼¥à¥Ú¡¼¥¸¤ò¾Ò²ð¤·
     ¤Æ¤ª¤¤Þ¤¹¡¥
    ¡ ¼ÒÃÄË¡¿ÍÆüËÜ¥¢¥Þ¥Á¥å¥¢ÌµÀþÏ¢ÌÁ¡Ê£Ê£Á£Ò£Ì¡Ë¤Î¥Û¡¼¥à¥Ú¡¼¥¸
          http://www.jarl.or.jp/Japanese/3_Fuji
 
    ¢ ±§Ã賫ȯ»ö¶ÈÃġʣΣÁ£Ó£Ä£Á¡Ë¥Û¡¼¥à¥Ú¡¼¥¸ 
          http://www.nasda.go.jp/
         ÂǾ夲±ÒÀ±¡¡¡§Ãϵå´Ñ¬¥×¥é¥Ã¥È¥Õ¥©¡¼¥àµ»½Ñ±ÒÀ±¡ÊADEOS¡Ë 
                       ¥¢¥Þ¥Á¥å¥¢±ÒÀ±£³¹æ(JAS-2)
          http://yyy.tksc.nasda.go.jp/Home/Press/Press-j/jas-2_j.html        
  £Ä¡¥£Ê£Á£Í£Ó£Á£Ô¤Ë¤è¤ëµ°Æ»¾ðÊó¤Î³èÍÑ
        JAMSAT¤Î¥Û¡¼¥à¥Ú¡¼¥¸¤Þ¤¿¤Ïjamsat¡Ýkeps¤Îµ°Æ»Í×ÁǤè¤ê
      ±ÒÀ±¤Îµ°Æ»¾ðÊó¤òÆÀ¤ë¡¥
     £Ê£Á£Í£Ó£Á£Ô¥Û¡¼¥à¥Ú¡¼¥¸
               £Õ£Ò£Ì    http://www.jamsat.or.jp
       ¾åµ¥Û¡¼¥à¥Ú¡¼¥¸¤Ç¤Ï³ÆÃϤǹԤï¤ì¤ë¥¢¥Þ¥Á¥å¥¢ÄÌ¿®±ÒÀ±¤Ë´Ø¤¹¤ë
      ¥ß¥å¡¼¥Æ¥£¥ó¥°¤Î¤ªÃΤ餻¤äÀ¤³¦¤Î¥¢¥Þ¥Á¥å¥¢±ÒÀ±¤Ë´Ø¤¹¤ë¾ðÊó¤¬
      ËþºÜ¤µ¤ì¤Æ¤¤¤Þ¤¹¡¥
   
 =========================================================================
       £Ê£Á£Í£Ó£Á£Ô¤Î¥á¥ó¥Ð¡¼¤Î¤´¶¨ÎϤˤè¤ê£Ê£È£¶£Í£Í£Å¡Ê¹â»³ ½¨Â¤¡Ë¤¬
    ¼¹É®¡¦ÊÔ½¸¤òôÅö¤·¤Æ¤ª¤ê¤Þ¤¹¡¥¤´»ØÅ¦¤Î°Õ¸«¡¢µ¿Ìä¤ä¤³¤Î¤è¤¦¤Ë¤·¤¿¤é
    ¤È¤¤¤¦¥¢¥¤¥Ç¥¢¤¬¤¢¤ê¤Þ¤·¤¿¤é¾®¤µ¤Ê¤³¤È¤Ç¤â¤«¤Þ¤¤¤Þ¤»¤ó¤Î¤Çµ¤·Ú¤Ë²¼
    µ¥¢¥É¥ì¥¹¤Þ¤Ç¤´Ï¢Íí¤¯¤À¤µ¤¤¡¥£ê£á£í£ó£á£ô¡Ý£î£å£÷£ó¤«¤é£ê£á£ó£²
    £é£î£æ£ï¤Ø¤ÎžºÜ¤ò£Ê£È£´£Ð£È£×¶Éºä°æ¤µ¤ó¤ËôÅö¤·¤ÆÄº¤¤¤Æ¤ª¤ê¤Þ¤¹¡¥
                    E-mail : jh6mme@jamsat.or.jp : jh4phw@jamsat.or.jp
 ===============================   £Å£Î£Ä  ===============================